Regional Weather Roundup
Issued by NWS

Home | Current Version | Previous Version | Graphics & Text | Print | Product List | Glossary On
Versions: 1 2 3 4 5 6 7 8 9 10 11 12 13 14 15 16 17 18 19 20 21 22 23 24 25 26 27 28 29 30 31 32 33 34 35 36 37 38 39 40 41 42 43 44 45 46 47 48 49 50
000
ASUS43 KLSX 040259
RWRMO

WEATHER SUMMARY FOR MISSOURI
NATIONAL WEATHER SERVICE SPRINGFIELD MO
1000 PM CDT FRI JUL 03 2015

NOTE: "FAIR" INDICATES FEW OR NO CLOUDS BELOW 12,000 FEET WITH NO
       SIGNIFICANT WEATHER AND/OR OBSTRUCTIONS TO VISIBILITY.
       CURRENT SKY AND/OR WEATHER CONDITIONS ARE NOT AVAILABLE FOR
       CHILLICOTHE AND FARMINGTON.

MOZ001>031-035>038-043-044-053-054-040400-
...NORTHERN AND WESTERN MISSOURI...

CITY           SKY/WX    TMP DP  RH WIND       PRES   REMARKS
KANSAS CTY INT CLEAR     69  61  75 NE5       29.96R
KANSAS C DTWN  CLEAR     72  60  66 N5        29.94R
LEE`S SUMMIT   CLEAR     72  60  66 NE5       29.96R
ST JOSEPH      CLEAR     67  62  84 N3        29.96R
CHILLICOTHE      N/A     66  64  93 CALM      29.98R
KIRKSVILLE     CLEAR     63  61  93 CALM      29.97R

$$
MOZ066>068-077>081-088>096-101>105-040400-
...SOUTHWEST MISSOURI...

CITY           SKY/WX    TMP DP  RH WIND       PRES   REMARKS
SPRINGFIELD    CLEAR     74  68  81 NE6       29.95R
JOPLIN         CLEAR     72  70  93 E3        29.94R

$$
MOZ032>034-039>042-045>050-055>058-069>072-040400-
...CENTRAL MISSOURI...

CITY           SKY/WX    TMP DP  RH WIND       PRES   REMARKS
COLUMBIA       CLEAR     69  63  81 N5        29.95R
JEFFERSON CITY   N/A     71  63  75 N5        29.93
ROLLA          CLEAR     67  64  90 CALM      29.93R
SEDALIA        CLEAR     70  65  84 CALM      29.97R
OSAGE BEACH    CLEAR     66  63  88 CALM      29.94R

$$
MOZ051-052-059>065-040400-
...EAST CENTRAL MISSOURI...

CITY           SKY/WX    TMP DP  RH WIND       PRES   REMARKS
ST LOUIS INTL  PTCLDY    76  66  71 NE3       29.92R
SPIRIT OF STL  CLEAR     69  67  93 CALM      29.91R
ST CHARLES     CLEAR     72  69  90 N3        29.91R

$$
MOZ072>076-082>087-097>100-106>115-040400-
...SOUTH CENTRAL AND SOUTHEAST MISSOURI...

CITY           SKY/WX    TMP DP  RH WIND       PRES   REMARKS
CAPE GIRARDEAU PTCLDY    70  69  97 W3        29.88R
FARMINGTON     CLEAR     70  64  83 N3        29.96R
POPLAR BLUFF   LGT RAIN  73  70  90 S6        29.88R
WEST PLAINS    PTCLDY    70  67  90 N3        29.94R

$$


USA.gov is the U.S. government's official web portal to all federal, state and local government web resources and services.